CW9197 Juva FI current weather conditions

sailwx.info

Wind from 112

Air temperature 15.6° C
Dewpoint 14.3° C

Last reported at 2016-Jun-28 19:45 UTC.
Time now 2016-Jun-28 20:41 UTC

Location: N 61°53' E 027°53'.
View on Google Maps.

See reports from other nearby stations

  
Tides and Currents Weather Stations Pressure Air Temp Water Temp Dewpoint Dewpoint Depression Visibility Wind Speed Wind Dir Waves Ship Positions
date/time (UTC)wind fromknots sea level pressurealtimeterstation pressurevisibilityair tempwater tempwave heightnotes
2016-Jun-28 19:45 112 15.6
2016-Jun-28 19:35 034 16.1
2016-Jun-28 19:25 16.1
2016-Jun-28 19:15 16.1
2016-Jun-28 19:05 033 16.7
2016-Jun-28 18:55 067 16.7
2016-Jun-28 18:45 042 16.7
2016-Jun-28 18:35 030 16.7
2016-Jun-28 18:25 050 17.2
2016-Jun-28 18:15 056 17.2
2016-Jun-28 18:05 057 0 gusting 1 17.2
2016-Jun-28 17:55 054 0 gusting 3 17.8
2016-Jun-28 17:45 056 0 gusting 1 17.8
2016-Jun-28 17:35 059 1 gusting 3 17.8
2016-Jun-28 17:25 057 0 gusting 1 17.8
2016-Jun-28 17:15 067 0 gusting 1 17.8
2016-Jun-28 17:05 066 17.8
2016-Jun-28 16:55 074 0 gusting 1 17.8
2016-Jun-28 16:45 072 0 gusting 1 17.8
2016-Jun-28 16:35 065 0 gusting 1 17.8
2016-Jun-28 16:25 089 0 gusting 2 17.8
2016-Jun-28 16:15 065 0 gusting 2 17.2
2016-Jun-28 16:05 063 1 gusting 3 17.2
2016-Jun-28 15:55 051 0 gusting 2 17.8
2016-Jun-28 15:45 094 0 gusting 3 17.8
2016-Jun-28 15:35 083 0 gusting 3 17.8
2016-Jun-28 15:25 061 1 gusting 3 17.8
2016-Jun-28 15:15 008 17.8
2016-Jun-28 15:05 060 0 gusting 2 17.2
2016-Jun-28 14:55 084 17.2
2016-Jun-28 14:45 077 17.2
2016-Jun-28 14:35 060 0 gusting 4 17.2
2016-Jun-28 14:25 081 0 gusting 2 17.2
2016-Jun-28 14:15 074 1 gusting 3 17.2
2016-Jun-28 14:05 063 0 gusting 1 17.2
2016-Jun-28 13:55 072 0 gusting 3 17.8
2016-Jun-28 13:45 039 0 gusting 2 17.8
2016-Jun-28 13:35 100 17.8
2016-Jun-28 13:25 342 1 gusting 4 17.8
2016-Jun-28 13:15 345 0 gusting 2 17.2
2016-Jun-28 13:05 300 17.2
2016-Jun-28 12:55 213 16.7
2016-Jun-28 12:45 182 16.7
2016-Jun-28 12:35 200 16.7
2016-Jun-28 12:25 132 16.7
2016-Jun-28 12:15 277 16.7
2016-Jun-28 12:05 16.1
2016-Jun-28 11:55 16.1
2016-Jun-28 11:45 283 16.1
2016-Jun-28 11:35 279 15.6
2016-Jun-28 11:25 241 15.6
2016-Jun-28 11:15 194 15.6
2016-Jun-28 11:05 232 15.6
2016-Jun-28 10:55 198 15.0
2016-Jun-28 10:45 206 15.0
2016-Jun-28 10:35 248 15.0
2016-Jun-28 10:25 197 15.6
2016-Jun-28 10:15 198 15.0
2016-Jun-28 10:05 110 15.0
2016-Jun-28 09:55 157 15.0
2016-Jun-28 09:45 213 15.0
2016-Jun-28 09:35 214 15.0
2016-Jun-28 09:25 219 15.0
2016-Jun-28 09:15 179 0 gusting 1 15.0
2016-Jun-28 09:05 149 15.0
2016-Jun-28 08:55 201 0 gusting 3 15.0
2016-Jun-28 08:45 172 14.4
2016-Jun-28 08:35 127 14.4
2016-Jun-28 08:25 195 14.4
2016-Jun-28 08:15 13.9
2016-Jun-28 08:05 198 13.9
2016-Jun-28 07:55 078 0 gusting 1 13.9
2016-Jun-28 07:45 068 13.9
2016-Jun-28 07:35 155 13.9
2016-Jun-28 07:25 086 13.9
2016-Jun-28 07:15 167 13.9
2016-Jun-28 07:05 155 13.3
2016-Jun-28 06:55 078 13.3
2016-Jun-28 06:45 13.3
2016-Jun-28 06:35 13.3
2016-Jun-28 06:25 110 13.3
2016-Jun-28 06:15 086 0 gusting 4 13.3
2016-Jun-28 06:05 126 13.3
2016-Jun-28 05:55 135 13.3
2016-Jun-28 05:45 082 13.3
2016-Jun-28 05:35 107 13.3
2016-Jun-28 05:25 148 12.8
2016-Jun-28 05:15 107 12.8
2016-Jun-28 05:05 113 12.8
2016-Jun-28 04:55 089 12.8
2016-Jun-28 04:45 107 12.8
2016-Jun-28 04:35 123 12.8
2016-Jun-28 04:25 098 12.8
2016-Jun-28 04:15 076 12.8
2016-Jun-28 04:05 085 12.8
2016-Jun-28 03:55 077 0 gusting 3 12.8
2016-Jun-28 03:45 084 0 gusting 3 12.8
2016-Jun-28 03:35 070 12.8
2016-Jun-28 03:25 114 0 gusting 3 12.8
2016-Jun-28 03:15 067 2 gusting 6 12.8
2016-Jun-28 03:05 089 1 gusting 5 12.8
2016-Jun-28 02:55 075 1 gusting 3 12.8
2016-Jun-28 02:45 079 1 gusting 3 12.8
2016-Jun-28 02:35 083 2 gusting 7 12.8
2016-Jun-28 02:25 085 1 gusting 6 12.8
2016-Jun-28 02:15 079 1 gusting 4 12.8
2016-Jun-28 02:05 070 1 gusting 2 12.8
2016-Jun-28 01:55 067 12.8
2016-Jun-28 01:45 075 12.8
2016-Jun-28 01:35 084 1 gusting 5 12.8
2016-Jun-28 01:25 086 1 gusting 3 12.8
2016-Jun-28 01:15 071 0 gusting 2 12.8
2016-Jun-28 01:05 054 1 gusting 4 12.8
2016-Jun-28 00:55 058 0 gusting 2 12.8
2016-Jun-28 00:45 075 12.8
2016-Jun-28 00:35 060 0 gusting 1 12.8
2016-Jun-28 00:25 065 12.8
2016-Jun-28 00:15 155 13.3
2016-Jun-28 00:05 155 13.3
2016-Jun-27 23:55 137 13.3
2016-Jun-27 23:45 13.9
2016-Jun-27 23:35 106 13.9
2016-Jun-27 23:25 069 13.9
2016-Jun-27 23:15 071 14.4
2016-Jun-27 23:05 119 14.4
2016-Jun-27 22:55 135 14.4
2016-Jun-27 22:45 164 0 gusting 3 15.0
2016-Jun-27 22:35 180 0 gusting 3 15.0
2016-Jun-27 22:25 162 0 gusting 3 15.6
2016-Jun-27 22:15 167 0 gusting 3 15.6
2016-Jun-27 22:05 138 0 gusting 5 16.1
2016-Jun-27 21:55 108 0 gusting 3 16.1
2016-Jun-27 21:45 105 0 gusting 6 16.1
2016-Jun-27 21:35 110 1 gusting 4 16.1
2016-Jun-27 21:25 099 1 gusting 5 16.1
2016-Jun-27 21:15 143 0 gusting 3 16.1
2016-Jun-27 21:05 155 0 gusting 3 16.1
2016-Jun-27 20:55 129 1 gusting 6 16.1
2016-Jun-27 20:45 116 1 gusting 4 16.1
2016-Jun-27 20:35 117 1 gusting 4 16.1
2016-Jun-27 20:25 116 16.1
2016-Jun-27 20:15 138 0 gusting 4 16.7
2016-Jun-27 20:05 106 0 gusting 6 16.7
2016-Jun-27 19:55 134 16.7
2016-Jun-27 19:45 112 0 gusting 5 16.7
2016-Jun-27 19:35 101 1 gusting 6 16.7
2016-Jun-27 19:25 100 0 gusting 2 16.7
2016-Jun-27 19:15 126 0 gusting 4 16.7
2016-Jun-27 19:05 127 0 gusting 3 16.7
2016-Jun-27 18:55 146 0 gusting 6 17.2
2016-Jun-27 18:45 153 0 gusting 2 17.2
2016-Jun-27 18:35 115 0 gusting 4 17.2
2016-Jun-27 18:25 132 0 gusting 5 17.8
2016-Jun-27 18:15 103 0 gusting 3 17.8
2016-Jun-27 18:05 106 0 gusting 1 17.8
2016-Jun-27 17:55 090 1 gusting 6 18.3
2016-Jun-27 17:45 082 2 gusting 8 18.3
2016-Jun-27 17:35 076 1 gusting 5 18.3
2016-Jun-27 17:25 082 1 gusting 5 18.3
2016-Jun-27 17:15 085 2 gusting 6 18.3
2016-Jun-27 17:05 082 2 gusting 6 18.3
2016-Jun-27 16:55 081 3 gusting 8 18.9
2016-Jun-27 16:45 072 1 gusting 7 18.9
2016-Jun-27 16:35 087 4 gusting 8 18.9
2016-Jun-27 16:25 099 2 gusting 10 18.9
2016-Jun-27 16:15 093 1 gusting 6 18.9
2016-Jun-27 16:05 080 1 gusting 4 19.4
2016-Jun-27 15:55 088 2 gusting 8 19.4
2016-Jun-27 15:45 078 4 gusting 11 19.4
2016-Jun-27 15:35 064 4 gusting 10 20.0
2016-Jun-27 15:25 089 3 gusting 12 20.0
2016-Jun-27 15:15 083 3 gusting 8 20.0
2016-Jun-27 15:05 087 4 gusting 12 20.0
2016-Jun-27 14:55 070 3 gusting 9 20.0
2016-Jun-27 14:45 073 5 gusting 10 19.4
2016-Jun-27 14:35 094 3 gusting 10 20.0
2016-Jun-27 14:25 089 4 gusting 10 20.6
2016-Jun-27 14:15 081 5 gusting 12 20.0
2016-Jun-27 14:05 078 6 gusting 13 20.0
2016-Jun-27 13:55 088 3 gusting 10 20.0
2016-Jun-27 13:45 090 4 gusting 10 19.4
2016-Jun-27 13:35 089 3 gusting 12 19.4
2016-Jun-27 13:25 084 6 gusting 13 19.4
2016-Jun-27 13:15 091 4 gusting 10 19.4
2016-Jun-27 13:05 078 6 gusting 14 20.0
2016-Jun-27 12:55 082 3 gusting 10 19.4
2016-Jun-27 12:45 085 6 gusting 13 20.0
2016-Jun-27 12:35 080 6 gusting 13 20.6
2016-Jun-27 12:25 099 3 gusting 10 20.6
2016-Jun-27 12:15 084 4 gusting 9 20.0
2016-Jun-27 12:05 097 4 gusting 12 20.6
2016-Jun-27 11:55 103 3 gusting 7 20.6
2016-Jun-27 11:45 109 3 gusting 7 20.0
2016-Jun-27 11:35 084 3 gusting 11 20.6
2016-Jun-27 11:25 096 4 gusting 15 21.1
2016-Jun-27 11:15 092 4 gusting 9 20.6
2016-Jun-27 11:05 077 4 gusting 9 20.6
2016-Jun-27 10:55 117 2 gusting 6 20.6
2016-Jun-27 10:45 082 3 gusting 9 19.4
2016-Jun-27 10:35 096 4 gusting 12 20.0
2016-Jun-27 10:25 103 2 gusting 9 20.6
2016-Jun-27 10:15 125 1 gusting 7 18.9
2016-Jun-27 10:05 104 3 gusting 10 18.9
2016-Jun-27 09:55 085 5 gusting 10 18.9
2016-Jun-27 09:45 081 4 gusting 10 19.4
2016-Jun-27 09:35 095 4 gusting 12 20.0
2016-Jun-27 09:25 124 3 gusting 8 20.0
2016-Jun-27 09:15 084 6 gusting 14 19.4
2016-Jun-27 09:05 092 5 gusting 14 18.3
2016-Jun-27 08:55 079 6 gusting 17 18.3
2016-Jun-27 08:45 071 4 gusting 13 17.8
2016-Jun-27 08:35 080 4 gusting 11 17.8
2016-Jun-27 08:25 090 2 gusting 8 17.8
2016-Jun-27 08:15 079 5 gusting 10 18.3
2016-Jun-27 08:05 078 4 gusting 12 17.8
2016-Jun-27 07:55 075 5 gusting 10 18.3
2016-Jun-27 07:45 086 4 gusting 12 18.9
2016-Jun-27 07:35 100 3 gusting 8 18.9
2016-Jun-27 07:25 098 2 gusting 8 18.3
2016-Jun-27 07:15 075 6 gusting 13 18.3
2016-Jun-27 07:05 086 4 gusting 13 18.9
2016-Jun-27 06:55 087 3 gusting 10 18.9
2016-Jun-27 06:45 118 2 gusting 10 18.3
2016-Jun-27 06:35 096 3 gusting 10 17.2
2016-Jun-27 06:25 076 2 gusting 8 16.7
2016-Jun-27 06:15 095 3 gusting 8 16.7
2016-Jun-27 06:05 077 3 gusting 10 16.7
2016-Jun-27 05:55 125 1 gusting 5 16.7
2016-Jun-27 05:45 096 2 gusting 7 16.7
2016-Jun-27 05:35 106 2 gusting 10 16.1
2016-Jun-27 05:25 089 1 gusting 6 16.1
2016-Jun-27 05:15 106 2 gusting 9 16.1
2016-Jun-27 05:05 094 2 gusting 8 16.1
2016-Jun-27 04:55 086 5 gusting 13 16.1
2016-Jun-27 04:45 091 4 gusting 14 16.1
2016-Jun-27 04:35 078 4 gusting 9 16.1
2016-Jun-27 04:25 102 4 gusting 12 16.7
2016-Jun-27 04:15 098 2 gusting 7 17.2
2016-Jun-27 04:05 082 4 gusting 9 18.3
2016-Jun-27 03:55 081 4 gusting 14 18.9
2016-Jun-27 03:45 081 5 gusting 13 18.3
2016-Jun-27 03:35 092 2 gusting 8 17.8
2016-Jun-27 03:25 085 4 gusting 12 18.3
2016-Jun-27 03:15 088 1 gusting 7 17.8
2016-Jun-27 03:05 072 3 gusting 6 17.2
2016-Jun-27 02:55 079 3 gusting 6 17.8
2016-Jun-27 02:45 083 3 gusting 7 17.2
2016-Jun-27 02:35 082 3 gusting 9 17.2
2016-Jun-27 02:25 080 2 gusting 6 16.7
2016-Jun-27 02:15 079 2 gusting 7 16.1
2016-Jun-27 02:05 077 2 gusting 7 15.6
2016-Jun-27 01:55 074 2 gusting 6 14.4
2016-Jun-27 01:45 089 2 gusting 7 14.4
2016-Jun-27 01:35 073 2 gusting 9 14.4
2016-Jun-27 01:25 067 2 gusting 6 14.4
2016-Jun-27 01:15 073 1 gusting 5 14.4
2016-Jun-27 01:05 072 2 gusting 6 14.4
2016-Jun-27 00:55 068 2 gusting 4 14.4
2016-Jun-27 00:45 077 2 gusting 7 15.0
2016-Jun-27 00:35 067 3 gusting 7 15.0
2016-Jun-27 00:25 066 4 gusting 7 15.0
2016-Jun-27 00:15 068 3 gusting 8 15.0
2016-Jun-27 00:05 077 2 gusting 6 15.0
2016-Jun-26 23:55 067 4 gusting 10 15.0
2016-Jun-26 23:45 068 5 gusting 10 15.6
2016-Jun-26 23:35 062 4 gusting 8 15.0
2016-Jun-26 23:25 066 4 gusting 7 15.6
2016-Jun-26 23:15 059 4 gusting 9 15.6
2016-Jun-26 23:05 060 4 gusting 10 15.6
2016-Jun-26 22:55 060 5 gusting 9 15.6
2016-Jun-26 22:45 058 3 gusting 8 15.6
2016-Jun-26 22:35 060 2 gusting 6 15.6
2016-Jun-26 22:25 059 3 gusting 7 15.6
2016-Jun-26 22:15 055 2 gusting 5 15.6
2016-Jun-26 22:05 052 2 gusting 4 15.6
2016-Jun-26 21:55 052 2 gusting 6 15.6
2016-Jun-26 21:45 054 1 gusting 4 15.6
2016-Jun-26 21:35 055 1 gusting 4 15.6
2016-Jun-26 21:25 050 1 gusting 3 15.6
2016-Jun-26 21:15 055 1 gusting 5 15.6
2016-Jun-26 21:05 056 1 gusting 3 16.1
2016-Jun-26 20:55 053 1 gusting 3 16.1
2016-Jun-26 20:45 056 1 gusting 4 16.1
2016-Jun-26 20:35 055 1 gusting 4 16.1
2016-Jun-26 20:25 055 1 gusting 3 16.1
2016-Jun-26 20:15 045 0 gusting 2 16.7
2016-Jun-26 20:05 057 0 gusting 2 16.7